sat.trackr.live / text

‹ back to catalog

COSMOS 2612

NORAD 68762 · 2026-083H

PAYLOAD ACTIVE UNKNOWN

§ Identity

Operator
Country
CIS
Launch date
2026-04-16
Launch site
PLMSC
Launch vehicle
Mass (kg)
RCS (m²)

External: N2YO · Heavens-Above · Gunter

§ Orbital elements

Epoch: 2026-09-19T22:12:38.626848Z

Period
95.53 min
Inclination
97.8677°
Eccentricity
0.0014230
Mean motion
15.07360694 rev/d
Perigee alt
534.4 km
Apogee alt
554.1 km
Semi-major
6,922.4 km
B*
1.1785e-4
RAAN
43.0236°
Arg perigee
89.4696°
Mean anomaly
270.8161°
Rev number
2,347

§ Raw data

COSMOS 26121 68762U 26083H   26262.92544707  .00001719  00000+0  11785-3 0  99962 68762  97.8677  43.0236 0014230  89.4696 270.8161 15.07360694 23477

JSON: /api/v1/satellites/68762 · /tle

For live sub-satellite position, see the globe view (requires WebGL).

§ Visibility from observer

Set your observer location to see the next 7 days of passes ≥ 10°. The values pass through the URL so the page stays shareable.

No JS? Fill the form by hand. The geolocation button needs JavaScript.